EW6030 Weather Reports


Display with metric or nautical units.
time (UTC)temp
F
wind
direction
speed
MPH
gust
MPH
rain 1hr
in
rain 24hr
in
rain mn
in
humidity
%
barometer
mb
20260507153012 52 12 0.0 0.0 0.00 0.00 0.00 41 1010.4
20260507151509 51 40 0.0 0.0 0.00 0.00 0.00 46 1010.5
20260507150014 48 36 0.0 0.0 0.00 0.00 0.00 50 1010.7
20260507144503 47 51 0.0 0.0 0.00 0.00 0.00 52 1011.0
20260507143105 46 49 0.0 0.0 0.00 0.00 0.00 53 1011.3
20260507141555 45 339 0.0 0.0 0.00 0.00 0.00 57 1011.8
20260507140052 44 58 0.0 0.0 0.00 0.00 0.00 57 1011.8
20260507134551 45 344 0.0 0.0 0.00 0.00 0.00 55 1011.8
20260507133101 43 340 0.0 0.0 0.00 0.00 0.00 58 1012.1
20260507131551 43 343 0.0 0.0 0.00 0.00 0.00 62 1012.1
20260507130055 41 12 0.0 0.0 0.00 0.00 0.00 62 1012.2
20260507124538 40 106 0.0 0.0 0.00 0.00 0.00 66 1012.4
20260507123037 39 110 0.0 0.0 0.00 0.00 0.00 74 1012.4
20260507121536 38 110 0.0 0.0 0.00 0.00 0.00 75 1012.5
20260507120048 37 110 0.0 0.0 0.00 0.00 0.00 76 1012.5
20260507114602 37 110 0.0 0.0 0.00 0.00 0.00 77 1012.2
20260507113034 36 110 0.0 0.0 0.00 0.00 0.00 77 1012.1
20260507111535 36 110 0.0 0.0 0.00 0.00 0.00 77 1011.9
20260507110033 35 110 0.0 0.0 0.00 0.00 0.00 76 1011.8
20260507104531 34 110 0.0 0.0 0.00 0.00 0.00 76 1011.9
20260507103031 33 110 0.0 0.0 0.00 0.00 0.00 76 1011.9
20260507101531 33 110 0.0 0.0 0.00 0.00 0.00 76 1011.9
20260507100034 33 110 0.0 0.0 0.00 0.00 0.00 77 1011.9
20260507094528 32 110 0.0 0.0 0.00 0.00 0.00 77 1011.9
20260507093027 32 110 0.0 0.0 0.00 0.00 0.00 77 1012.0
20260507090034 33 110 0.0 0.0 0.00 0.00 0.00 77 1012.0
20260507084526 33 110 0.0 0.0 0.00 0.00 0.00 77 1012.1
20260507083029 33 110 0.0 0.0 0.00 0.00 0.00 77 1012.1
20260507081521 33 110 0.0 0.0 0.00 0.00 0.00 76 1012.0
20260507080023 33 110 0.0 0.0 0.00 0.00 0.00 76 1012.1
20260507074519 34 110 0.0 0.0 0.00 0.00 0.00 75 1012.2
20260507073017 34 110 0.0 0.0 0.00 0.00 0.00 74 1012.1
20260507071515 35 110 0.0 0.0 0.00 0.00 0.00 73 1012.4
20260507070014 35 110 0.0 0.0 0.00 0.00 0.00 72 1012.4
20260507064511 35 110 0.0 0.0 0.00 0.00 0.00 71 1012.6
20260507063010 35 110 0.0 0.0 0.00 0.00 0.00 71 1012.7
20260507061509 35 110 0.0 0.0 0.00 0.00 0.00 70 1012.6
20260507060009 35 110 0.0 0.0 0.00 0.00 0.00 70 1012.8
20260507054513 35 110 0.0 0.0 0.00 0.00 0.00 69 1012.9
20260507053004 36 110 0.0 0.0 0.00 0.00 0.00 68 1013.0
20260507051501 36 110 0.0 0.0 0.00 0.00 0.00 67 1013.0
20260507050058 37 110 0.0 0.0 0.00 0.00 0.00 67 1013.1
20260507044555 37 110 0.0 0.0 0.00 0.00 0.00 65 1013.3
20260507043053 38 110 0.0 0.0 0.00 0.00 0.00 63 1013.3
20260507041553 38 110 0.0 0.0 0.00 0.00 0.00 61 1013.4
20260507040053 39 110 0.0 0.0 0.00 0.00 0.00 61 1013.6
20260507034551 40 110 0.0 0.0 0.00 0.00 0.00 59 1013.5
20260507033050 40 110 0.0 0.0 0.00 0.00 0.00 58 1013.6
20260507031545 41 110 0.0 0.0 0.00 0.00 0.00 57 1013.6
20260507030044 41 110 0.0 0.0 0.00 0.00 0.00 55 1013.5
20260507024543 42 110 0.0 0.0 0.00 0.00 0.00 55 1013.4
20260507023048 42 110 0.0 0.0 0.00 0.00 0.00 53 1013.3
20260507021544 43 135 0.0 0.0 0.00 0.00 0.00 53 1013.1
20260507014537 44 127 0.0 0.0 0.00 0.00 0.00 51 1012.8
20260507013048 44 106 0.0 0.0 0.00 0.00 0.00 51 1012.6
20260507011536 45 105 0.0 0.0 0.00 0.00 0.00 49 1012.5
20260507010036 45 120 1.0 0.0 0.00 0.00 0.00 48 1012.5
20260507004536 46 54 0.0 0.0 0.00 0.00 0.00 50 1012.3
20260507003041 46 66 0.0 0.0 0.00 0.00 0.00 49 1012.1
20260507001535 46 106 1.0 0.0 0.00 0.00 0.00 49 1012.1
20260507000034 46 92 0.0 0.0 0.00 0.00 0.00 48 1011.9
20260506234529 47 78 1.0 0.0 0.00 0.00 0.00 46 1012.0
20260506233029 48 3 1.0 0.0 0.00 0.00 0.00 44 1012.0
20260506231528 49 64 2.0 0.0 0.00 0.00 0.00 44 1011.9
20260506230026 50 68 2.0 0.0 0.00 0.00 0.00 42 1011.7
20260506224525 50 105 3.0 0.0 0.00 0.00 0.00 43 1011.5
20260506223027 51 112 2.0 0.0 0.00 0.00 0.00 43 1011.5
20260506221524 51 115 4.0 0.0 0.00 0.00 0.00 42 1011.4
20260506220025 52 110 2.0 0.0 0.00 0.00 0.00 42 1011.1
20260506214536 53 112 1.0 0.0 0.00 0.00 0.00 42 1011.1
20260506213024 51 52 1.0 0.0 0.00 0.00 0.00 43 1011.0
20260506211522 51 43 2.0 0.0 0.00 0.00 0.00 43 1011.0
20260506210026 52 105 1.0 0.0 0.00 0.00 0.00 43 1011.1
20260506204521 52 37 1.0 0.0 0.00 0.00 0.00 43 1011.0
20260506203021 53 101 1.0 0.0 0.00 0.00 0.00 40 1011.0
20260506201521 53 110 1.0 0.0 0.00 0.00 0.00 41 1011.0
20260506200021 53 64 1.0 0.0 0.00 0.00 0.00 39 1011.0
20260506194520 54 107 1.0 0.0 0.00 0.00 0.00 39 1010.9
20260506193019 55 114 1.0 0.0 0.00 0.00 0.00 39 1010.9
20260506191519 54 106 1.0 0.0 0.00 0.00 0.00 38 1010.8
20260506190017 54 89 1.0 0.0 0.00 0.00 0.00 41 1010.7
20260506184532 54 107 1.0 0.0 0.00 0.00 0.00 40 1010.9
20260506183022 53 65 2.0 0.0 0.00 0.00 0.00 41 1010.8
20260506181516 52 29 1.0 0.0 0.00 0.00 0.00 42 1010.9
20260506180015 53 70 2.0 0.0 0.00 0.00 0.00 40 1011.0
20260506174511 53 126 2.0 0.0 0.00 0.00 0.00 42 1011.0
20260506173010 52 62 2.0 0.0 0.00 0.00 0.00 43 1010.9
20260506171510 53 58 1.0 0.0 0.00 0.00 0.00 43 1011.1
20260506170009 53 91 1.0 0.0 0.00 0.00 0.00 45 1011.2
20260506164509 52 137 1.0 0.0 0.00 0.00 0.00 46 1011.3
20260506163008 52 88 1.0 0.0 0.00 0.00 0.00 44 1011.3
20260506161512 51 105 2.0 0.0 0.00 0.00 0.00 46 1011.4
20260506160009 52 93 2.0 0.0 0.00 0.00 0.00 44 1011.3
20260506154506 52 52 1.0 0.0 0.00 0.00 0.00 45 1011.2